This is the latest recevied weather packets stored in our database for station/object TG8ARF-18. If no packets are shown the sender has not sent any weather packets the latest 10 day(s).
| Time | Temp. | Humidity | Pressure | Rain* | Wind** | Luminosity | Snow |
|---|---|---|---|---|---|---|---|
| 1777853865 | 17.22° C | 87% | 1015 hPa | 0 mm | - | - | - |
| 1777853265 | 16.11° C | 87% | 1015 hPa | 0.25 mm | - | - | - |
| 1777852664 | 17.78° C | 84% | 1015 hPa | 0 mm | - | - | - |
| 1777852064 | 16.67° C | 84% | 1015 hPa | 0.25 mm | - | - | - |
| 1777851463 | 18.89° C | 83% | 1015 hPa | 0.25 mm | - | - | - |
| 1777850862 | 17.78° C | 83% | 1015 hPa | 0 mm | - | - | - |
| 1777850262 | 16.67° C | 83% | 1015 hPa | 0 mm | - | - | - |
| 1777849661 | 18.89° C | 81% | 1015 hPa | 0 mm | - | - | - |
| 1777849060 | 17.78° C | 81% | 1015 hPa | 0 mm | - | - | - |
| 1777848460 | 16.67° C | 81% | 1015 hPa | 0 mm | - | - | - |
| 1777847859 | 18.33° C | 77% | 1015 hPa | 0 mm | - | - | - |
| 1777847258 | 17.22° C | 77% | 1015 hPa | 0.25 mm | - | - | - |
| 1777846658 | 19.44° C | 76% | 1015 hPa | 0.25 mm | - | - | - |
| 1777846057 | 18.33° C | 76% | 1015 hPa | 0.51 mm | - | - | - |
| 1777845456 | 18.89° C | 76% | 1015 hPa | 1.02 mm | - | - | - |
| 1777844856 | 19.44° C | 76% | 1015 hPa | 1.52 mm | - | - | - |
| 1777844255 | 18.33° C | 76% | 1015 hPa | 1.02 mm | - | - | - |
| 1777843655 | 21.11° C | 74% | 1015 hPa | 1.27 mm | - | - | - |
| 1777843054 | 20° C | 74% | 1015 hPa | 1.52 mm | - | - | - |
| 1777842453 | 20° C | 74% | 1015 hPa | 1.52 mm | - | - | - |
| 1777841853 | 18.89° C | 74% | 1015 hPa | 1.27 mm | - | - | - |
| 1777841252 | 20.56° C | 74% | 1015 hPa | 1.02 mm | - | - | - |
| 1777840651 | 19.44° C | 74% | 1015 hPa | 1.02 mm | - | - | - |
| 1777840051 | 22.78° C | 72% | 1016 hPa | 0 mm | - | - | - |
| 1777839450 | 22.22° C | 72% | 1016 hPa | 0 mm | - | - | - |
* Rain latest hour (hover to see other rain measurements)
** Current wind speed in m/s (hover to see current wind gust speed)